AirNav   TITAN Aviation Fuels
 
 398 users online  

06WN Western Airpark
Yelm, Washington, USA

GOING TO YELM?


FAA INFORMATION EFFECTIVE 11 AUGUST 2022

Location

FAA Identifier: 06WN
Lat/Long: 46-55-29.9450N 122-33-10.9400W
46-55.499083N 122-33.182333W
46.9249847,-122.5530389
(estimated)
Elevation: 394 ft. / 120 m (estimated)
Variation: 20E (1985)
From city: 3 miles SE of YELM, WA
Time zone: UTC -7 (UTC -8 during Standard Time)
Zip code: 98597

Airport Operations

Airport use: Private use. Permission required prior to landing
Activation date: 09/1975
Control tower: no
ARTCC: SEATTLE CENTER
FSS: SEATTLE FLIGHT SERVICE STATION
Attendance: UNATNDD
Wind indicator: yes
Segmented circle: no
Lights: SS-SR
Beacon: white-green (lighted land airport)
Operates sunset to sunrise.

Airport Communications

UNICOM: 122.8
WX ASOS at TCM (13 nm N): PHONE 253-982-3434
WX ASOS at OLM (15 nm W): 135.725 (360-754-0781)
WX AWOS-3 at PLU (15 nm NE): 128.575 (253-848-2748)

Nearby radio navigation aids

VOR radial/distance  VOR name  Freq  Var
OLMr082/14.6OLYMPIA VORTAC113.4019E
SEAr179/32.2SEATTLE VORTAC116.8019E

Airport Services

Parking: tiedowns
Airframe service: MINOR
Bottled oxygen: NONE
Bulk oxygen: NONE

Runway Information

Runway 9/27

Dimensions: 2845 x 30 ft. / 867 x 9 m
Surface: asphalt, in good condition
Runway edge lights: low intensity
Runway edge markings: RWY 27 DSPLCD THR MARKED WITH NONSTANDARD CHEVRONS.
RUNWAY 9  RUNWAY 27
Latitude: 46-55.580030N46-55.418138N
Longitude: 122-33.502855W122-32.861825W
Traffic pattern: leftleft
Displaced threshold: 528 ft.64 ft.
Markings: NSTD, in fair conditionNSTD, in fair condition
Obstructions: 100 ft. trees, 67 ft. from runway, 50 ft. left of centerline
RWY 090 STARTING 2545 FT FM RWY THR PWR LINE 120 FT R OF CTRLN 36 FT HIGH. RWY 09 STARTING 2545 FT FM RWY THR MULT TREES 125 FT HIGH 125 FT R OF CTRLN. RWY 09 STARTING 2545 FT FM RWY THR MULT TREES 60 FT L OF CTRLN 60 FT TO 100 FT HIGH.
50 ft. trees, 200 ft. from runway
RWY 27 BRUSH 36 FT FM W END OF RWY 27 - 10 FT L AND 20 FT R OF CNTRLN 8 FT HIGH. RWY 27 MULT TREES UP TO 100 FT STARTING AT W END OF RWY 27 10 FT L OF CNTRLN. RWY 27 MULT TREES UP TO 100 FT STARTING R OF CNTRLN 20 FT AND 63 FT FM W END OF RWY 27.

Airport Ownership and Management from official FAA records

Ownership: Privately-owned
Owner: WESTERN AIRPARK ASSOCIATION
P.O. BOX 57
MCKENNA, WA 98558
Phone 36-561-4948
Manager: RICK FERNALLD
11247 AIRPARK LANE
MCKENNA, WA 98597
Phone 360-458-3349

Airport Operational Statistics

Aircraft based on the field: 36
Single engine airplanes: 34
Multi engine airplanes: 1
Helicopters: 1
    
Aircraft operations: avg 23/week *
92% local general aviation
4% transient general aviation
4% military
* for 12-month period ending 31 December 2005

Additional Remarks

LEFT HAND TFC AT 1200 FT MSL.
HEL LDG ON TARMAC AT SW RUNUP PAD.
AFT DUSK LDG TO W, TKOF E.
CAUTION: LOW LEVEL MILITARY OPNS IN VICINITY OF ARPT.
UNLICENSED ULTRALIGHT PILOTS PROHIBITED.
WATCH FOR DEER ON & INVOF ARPT.
FOR CD CTC SEATTLE APCH AT 206-214-4794.

Instrument Procedures

There are no published instrument procedures at 06WN.

Some nearby airports with instrument procedures:

KGRF - Gray Army Airfield (Joint Base Lewis-McChord) (9 nm N)
KTCM - McChord Field Airport (Joint Base Lewis-McChord) (13 nm N)
KOLM - Olympia Regional Airport (15 nm W)
KPLU - Pierce County Airport - Thun Field (15 nm NE)
KTIW - Tacoma Narrows Airport (21 nm N)
 
Loc | Ops | Rwys | IFR | FBO | Links
Com | Nav | Svcs | Stats | Notes
Area around 06WN (Western Airpark)
 
Road maps at: MapQuest Bing Google
 
Aerial photo
WARNING: Photo may not be current or correct
Aerial photo of 06WN (Western Airpark)
Photo taken 02-Oct-2019
looking southeast.

Do you have a better or more recent aerial photo of Western Airpark that you would like to share? If so, please send us your photo.

 
Sectional chart

 
Airport distance calculator
Flying to Western Airpark? Find the distance to fly.

From to 06WN

Sunrise and sunset
Times for 14-Aug-2022
 Local
(UTC-7)
 Zulu
(UTC)
Morning civil twilight05:3412:34
Sunrise06:0713:07
Sunset20:2203:22
Evening civil twilight20:5603:56

Current date and time
Zulu (UTC)  14-Aug-2022 07:45:49
Local (UTC-7)  14-Aug-2022 00:45:49
 
METAR
KGRF 
9nm N 
140658Z AUTO 00000KT 10SM CLR 14/12 A3014 RMK AO2 SLP210 T01400117 $
KTCM 
12nm N 
140658Z AUTO 00000KT 10SM CLR 14/14 A3016 RMK AO2 SLP216 T01370137 $
KOLM 
14nm W 
140731Z AUTO 00000KT 3SM BR CLR 12/12 A3016 RMK AO2 T01220117
KPLU 
15nm NE 
140735Z AUTO 00000KT 10SM CLR 14/14 A3017 RMK AO2
TAF
KGRF 
9nm N 
140500Z 1405/1511 24005KT 9999 BKN040 QNH3016INS BECMG 1408/1409 27005KT 9999 FEW015 BKN025 QNH3016INS BECMG 1413/1414 24005KT 8000 BR BKN008 QNH3018INS BECMG 1416/1417 24005KT 9999 NSW BKN020 QNH3018INS TX25/1423Z TN14/1412Z
KTCM 
12nm N 
140502Z 1405/1511 28005KT 9999 SKC QNH3016INS BECMG 1407/1408 26005KT 9999 BKN030 QNH3016INS BECMG 1410/1411 28005KT 9999 OVC010 QNH3016INS BECMG 1418/1419 VRB04KT 9999 SCT015 BKN025 QNH3015INS TX24/1423Z TN14/1413Z
KOLM 
14nm W 
140520Z 1406/1506 00000KT P6SM SKC FM141300 00000KT 4SM BR BKN004 FM141700 VRB03KT P6SM FEW007 SCT050 FM141900 35005KT P6SM FEW050
NOTAMs
Click for the latest NOTAMs
NOTAMs are issued by the DoD/FAA and will open in a separate window not controlled by AirNav.

 

 
 

Would you like to see your business listed on this page?

 If your business provides an interesting product or service to pilots, flight crews, aircraft, or users of the Western Airpark, you should consider listing it here.  To start the listing process, click on the button below
 
Add a business
 

Other Pages about Western Airpark

Update a link
 
Copyright © AirNav, LLC. All rights reserved. Privacy Policy  Contact